Regional Weather Roundup
Issued by NWS

Home | Current Version | Previous Version | Graphics & Text | Print | Product List | Glossary On
Versions: 1 2 3 4 5 6 7 8 9 10 11 12 13 14 15 16 17 18 19 20 21 22 23 24 25 26 27 28 29 30 31 32 33 34 35 36 37 38 39 40 41 42 43 44 45 46 47 48 49 50
000
ASUS43 KLSX 310959
RWRMO

WEATHER SUMMARY FOR MISSOURI
NATIONAL WEATHER SERVICE SPRINGFIELD MO
400 AM CST SAT JAN 31 2015

NOTE: "FAIR" INDICATES FEW OR NO CLOUDS BELOW 12,000 FEET WITH NO
       SIGNIFICANT WEATHER AND/OR OBSTRUCTIONS TO VISIBILITY.
       CURRENT SKY AND/OR WEATHER CONDITIONS ARE NOT AVAILABLE FOR
       CHILLICOTHE AND FARMINGTON.

MOZ001>031-035>038-043-044-053-054-311100-
...NORTHERN AND WESTERN MISSOURI...

CITY           SKY/WX    TMP DP  RH WIND       PRES   REMARKS
KANSAS CTY INT LGT RAIN  34  30  85 SW3       30.28S
KANSAS C DTWN  LGT RAIN  38  28  67 CALM      30.28F
LEE`S SUMMIT   CLOUDY    37  21  52 SW5       30.28F
ST JOSEPH      CLOUDY    34  29  82 S6        30.28F WCI  29
CHILLICOTHE      N/A     31  21  66 S6        30.29F WCI  25
KIRKSVILLE     MOCLDY    29  20  69 S6        30.27F WCI  23

$$
MOZ066>068-077>081-088>096-101>105-311100-
...SOUTHWEST MISSOURI...

CITY           SKY/WX    TMP DP  RH WIND       PRES   REMARKS
SPRINGFIELD    CLOUDY    40  20  44 SE7       30.28F
JOPLIN         LGT RAIN  41  28  60 E9        30.26F

$$
MOZ032>034-039>042-045>050-055>058-069>072-311100-
...CENTRAL MISSOURI...

CITY           SKY/WX    TMP DP  RH WIND       PRES   REMARKS
COLUMBIA       CLOUDY    31  21  66 S7        30.29F WCI  24
JEFFERSON CITY CLOUDY    30  23  75 E3        30.32F
ROLLA          CLOUDY    35  19  52 S9        30.28F WCI  28
SEDALIA        CLOUDY    36  21  54 S5        30.30F
OSAGE BEACH    CLOUDY    36  19  51 CALM      30.30F

$$
MOZ051-052-059>065-311100-
...EAST CENTRAL MISSOURI...

CITY           SKY/WX    TMP DP  RH WIND       PRES   REMARKS
ST LOUIS INTL  MOCLDY    32  20  61 S3        30.35S
SPIRIT OF STL  CLOUDY    27  22  81 CALM      30.33F
ST CHARLES     MOCLDY    25  22  88 E3        30.35F

$$
MOZ072>076-082>087-097>100-106>115-311100-
...SOUTH CENTRAL AND SOUTHEAST MISSOURI...

CITY           SKY/WX    TMP DP  RH WIND       PRES   REMARKS
CAPE GIRARDEAU PTCLDY    30  25  81 NE3       30.38F
FARMINGTON     CLOUDY    30  21  69 S6        30.36F WCI  24
POPLAR BLUFF   CLOUDY    30  26  85 W3        30.36F
WEST PLAINS    CLOUDY    34  23  64 S5        30.34F WCI  30

$$


USA.gov is the U.S. government's official web portal to all federal, state and local government web resources and services.